Location: Ellerau
(53.7543°N, 9.9296°E)
Time: 12:28:50
(UTC+00:00)

Daily predictions for brighter satellites

Satellite Brightness Start Highest point End
(mag) Time Altitude Azimuth Time Altitude Azimuth Time Altitude Azimuth
Timation 2 Rocket 4.3 16:00:29 10° SSW 16:07:19 87° NW 16:14:16 10° NE
YAOGAN 1 4.2 16:07:44 10° E 16:10:01 14° NE 16:12:18 10° NNE
CZ-2C R/B 4.1 16:07:18 10° ESE 16:11:41 27° NE 16:16:15 10° N
Cosmos 1953 2.3 16:09:05 10° N 16:13:05 82° ENE 16:17:03 10° SSE
NOSS 3-1 (C) 4.4 16:07:40 10° WNW 16:13:40 38° N 16:20:47 10° ENE
H-2A R/B 2.4 16:10:11 10° SSE 16:14:09 66° ENE 16:18:18 10° N
Cosmos 1626 3.4 16:13:30 10° SE 16:16:20 21° E 16:19:10 10° NE
ATLAS 5 CENTAUR R/B 3.5 16:15:01 10° SE 16:16:45 12° ESE 16:18:33 10° E
Cosmos 1939 Rocket 3.7 16:13:19 10° SE 16:16:54 30° ENE 16:20:30 10° N
Cosmos 1455 Rocket 3.8 16:14:08 10° NNW 16:18:23 57° W 16:22:38 10° S
CZ-4 R/B 2.8 16:20:18 10° E 16:23:04 18° ENE 16:25:49 10° NNE
YAOGAN 6 3.0 16:19:47 10° S 16:23:19 68° WSW 16:26:55 10° NNW
Cosmos 2058 Rocket 4.4 16:25:10 10° NNE 16:28:23 19° ENE 16:31:35 10° ESE
CREW DRAGON DEMO-1 DEB 3.5 16:26:02 10° WSW 16:28:49 43° SSE 16:31:37 10° E
USA 229 4.5 16:22:32 10° WNW 16:28:55 39° N 16:35:40 10° ENE
USA 229 DEB 4.5 16:22:32 10° WNW 16:28:56 39° N 16:35:42 10° ENE
SL-16 R/B 3.6 16:23:35 10° NW 16:28:59 45° WSW 16:34:21 10° S
CZ-3B R/B 0.7 16:27:08 10° WNW 16:29:02 69° N 16:32:16 10° E
Cosmos 2228 3.7 16:25:37 10° N 16:29:28 32° ENE 16:33:18 10° SE
NOAA 11 4.2 16:24:50 10° SSE 16:30:18 69° ENE 16:35:47 10° NNW
Cosmos 2263 Rocket 3.2 16:25:44 10° SSE 16:30:25 27° ESE 16:35:07 10° NE
SMAP 3.1 16:26:35 10° SSE 16:31:14 85° ENE 16:35:56 10° NNW
Cosmos 1315 Rocket 3.3 16:28:34 10° N 16:32:15 35° ENE 16:35:56 10° SE
ADEOS Rocket 3.4 16:26:45 10° NNE 16:33:08 66° WNW 16:38:52 10° SSW
H-2A R/B 3.0 16:29:24 10° ESE 16:33:18 23° NE 16:37:16 10° N
NOSS 3-4 (A) 3.5 16:29:53 10° SSW 16:35:44 69° SE 16:42:04 10° NE
Meteor 1-24 Rocket 4.5 16:31:24 10° SE 16:35:50 27° E 16:40:13 10° NNE
NOSS 3-4 (C) 3.5 16:30:00 10° SSW 16:35:51 68° SE 16:42:10 10° NE
CORIOLIS 4.1 16:30:58 10° SSE 16:36:22 83° ENE 16:41:48 10° NNW
Timation 1 Rocket 4.5 16:30:37 10° SSW 16:36:31 61° ESE 16:42:28 10° NE
Cosmos 1455 4.1 16:37:10 10° NE 16:38:19 12° NE 16:38:19 12° NE
Genesis I 4.3 16:35:28 10° W 16:39:03 35° NNW 16:42:42 10° NE
Cosmos 2034 Rocket 4.4 16:32:51 10° NNW 16:39:09 70° W 16:45:20 10° S
NOAA 12 4.2 16:35:08 10° SSE 16:40:22 81° WSW 16:45:39 10° NNW
Cosmos 1300 3.1 16:37:51 10° N 16:41:30 40° ENE 16:45:07 10° SE
Cosmos 1943 3.2 16:37:15 10° NNW 16:42:59 75° NE 16:48:39 10° SE
NOSS 3-1 (A) 4.4 16:38:19 10° WNW 16:44:21 39° N 16:50:35 13° ENE
In-Cosmos 22 4.3 16:39:24 10° SSW 16:44:53 80° WNW 16:50:17 10° NNE
Cosmos 2279 Rocket 4.2 16:42:47 10° N 16:48:54 51° ENE 16:54:59 10° SSE
Cosmos 1908 3.8 16:46:01 10° NNW 16:49:50 61° W 16:53:39 10° S
Cosmos 1726 Rocket 4.0 16:48:26 10° N 16:52:32 38° ENE 16:56:37 10° SE
Cosmos 2219 4.0 16:47:26 10° WSW 16:52:59 48° NW 16:58:32 10° NNE
Cosmos 2082 Rocket 4.0 16:49:51 10° NNW 16:53:09 15° NNE 16:55:54 11° NE
ATLAS 2AS CENTAUR R/B 3.1 16:45:31 10° SSW 16:53:25 72° SE 17:00:36 12° NE
Lacrosse 5 1.9 16:49:05 10° WNW 16:54:09 67° NNE 16:58:27 14° E
ARGOS 4.0 16:50:40 10° ESE 16:55:06 27° ENE 16:59:33 10° N
Cosmos 773 Rocket 4.0 16:50:14 10° NNW 16:55:23 60° ENE 17:00:28 10° SE
Helios 1A Rocket 3.9 16:53:35 10° ESE 16:57:01 26° ENE 17:00:28 10° N
Cosmos 1833 Rocket 4.2 16:54:45 10° NNW 16:58:31 18° NNE 17:00:47 14° NE
Cosmos 1634 Rocket 4.0 16:52:28 10° N 16:58:44 84° ENE 17:05:01 10° SSE
Okean-O 3.1 17:00:45 10° SE 17:04:50 37° ENE 17:08:57 10° N
COSMO-SKYMED 1 3.1 17:01:52 10° NNE 17:05:57 37° E 17:09:59 10° SSE
Cosmos 2344 4.3 17:00:06 10° WNW 17:08:04 52° NNE 17:16:36 16° E
Landsat 5 3.8 17:04:08 10° N 17:08:10 64° WNW 17:12:02 10° SSW
SeaSat 1 3.9 17:04:53 10° NNE 17:09:12 31° NW 17:13:30 10° W
Cosmos 1536 Rocket 3.7 17:06:19 10° SSW 17:10:42 75° WNW 17:15:08 10° N
Cosmos 2227 Rocket 3.2 17:06:05 10° WSW 17:11:31 44° NW 17:16:58 10° NNE
ERS-2 3.1 17:12:03 24° E 17:12:35 25° E 17:15:39 10° SSE
Cosmos 1674 3.5 17:09:10 10° SSW 17:12:55 52° WNW 17:16:42 10° N
Okean O Rocket 2.5 17:08:59 10° S 17:13:20 53° W 17:17:42 10° NNW
RESURS DK-1 2.5 17:09:39 10° SSW 17:13:42 55° ESE 17:16:12 22° NE
CZ-4C R/B 3.9 17:11:23 10° N 17:14:24 42° WNW 17:17:24 10° SW
CZ-4B R/B 1.6 17:12:30 18° NNE 17:14:50 46° E 17:18:06 10° S
Cosmos 1538 Rocket 4.0 17:13:57 10° NNW 17:19:05 57° ENE 17:24:09 10° SE
CZ-4C R/B 2.2 17:18:49 10° SW 17:24:01 88° NW 17:28:31 20° NE
USA 234 3.3 17:19:06 18° E 17:24:08 75° NNE 17:30:42 10° WNW
Cosmos 1844 Rocket 4.2 17:22:49 10° SE 17:25:29 17° ESE 17:25:29 17° ESE
Tsikada Rocket 4.4 17:20:41 10° SSW 17:26:59 66° WNW 17:33:15 10° N
CZ-2D R/B 3.3 17:26:03 10° SSE 17:29:56 84° WSW 17:33:49 10° NNW
Cosmos 1354 Rocket 4.0 17:26:42 10° SSW 17:32:00 73° ESE 17:36:16 16° NNE
Meteor 2-5 Rocket 3.6 17:26:31 10° S 17:32:07 85° ESE 17:37:41 10° NNE
SL-14 R/B 3.2 17:28:38 10° SSW 17:32:30 83° WNW 17:36:27 10° N
Iridium 4 Rocket 4.5 17:28:58 10° N 17:34:04 30° ENE 17:35:39 26° E
IRS-1C Rocket 4.1 17:29:18 10° SSE 17:34:34 88° WSW 17:39:52 10° NNW
NOAA 15 4.5 17:30:24 10° SSE 17:35:36 69° ENE 17:40:52 10° NNW
Cosmos 2297 Rocket 3.7 17:31:46 10° W 17:36:43 30° NW 17:41:40 10° NNE
Cosmos 2180 Rocket 4.5 17:31:40 10° N 17:38:04 83° ENE 17:44:29 10° SSE
ATLAS 3B R/B 4.1 17:31:42 10° NW 17:38:05 41° WSW 17:44:42 10° S
COSMOS 2455 3.6 17:34:04 10° S 17:39:15 31° ESE 17:40:26 29° E
Cosmos 1606 Rocket 4.0 17:37:53 10° NNW 17:42:13 63° W 17:46:34 10° S
H-2A R/B 3.1 17:39:58 10° N 17:44:18 46° WNW 17:48:32 10° SW
YAOGAN 1 2.4 17:41:06 10° SSE 17:45:25 78° ENE 17:49:47 10° NNW
Cosmos 1892 Rocket 3.5 17:42:05 10° S 17:46:21 59° E 17:48:29 28° NNE
Cosmos 968 Rocket 4.2 17:41:42 10° SW 17:46:40 50° NW 17:51:16 12° NNE
CZ-2C R/B 3.5 17:45:51 10° S 17:51:05 69° WSW 17:56:40 10° NNW
CSL-04 Rocket 3.6 17:45:47 10° SE 17:51:05 62° ENE 17:56:30 10° NNW
Cosmos 1626 3.5 17:47:51 10° SW 17:51:20 39° WNW 17:54:51 10° N
Cosmos 1939 Rocket 4.5 17:47:54 10° SSW 17:51:46 37° W 17:55:36 10° NNW
Nadezhda 4 Rocket 4.1 17:47:02 10° SSE 17:53:04 52° E 17:59:04 10° NNE
NOSS 7 (E) 4.4 17:50:04 10° SW 17:53:17 58° SSE 17:53:17 58° SSE
SKYMED 2 3.6 17:50:08 12° NNE 17:54:08 82° WNW 17:58:28 10° SSW
MOS 1 Rocket 2.9 17:52:33 18° NNE 17:55:49 80° ESE 18:00:06 10° SSW
CZ-4 R/B 1.6 17:53:33 10° S 17:57:40 72° WSW 18:01:45 10° NNW
ATLAS 5 CENTAUR R/B 1.4 17:56:13 10° SW 18:00:19 72° SE 18:01:05 57° ENE
Meteor 2-10 Rocket 3.7 17:57:09 10° NNW 18:02:50 78° WSW 18:08:13 10° S
CREW DRAGON DEMO-1 DEB 3.9 18:00:58 10° W 18:03:09 41° SW 18:03:09 41° SW
COSMOS 2406 4.0 17:59:38 10° NNW 18:04:52 33° NE 18:04:54 33° NE
NOSS 3-1 (C) 4.0 17:58:55 10° NW 18:05:48 62° NNE 18:09:09 36° E
Cosmos 2058 Rocket 3.3 18:02:24 10° NNW 18:06:54 71° W 18:11:22 10° S
SL-08 RB Rocket 3.6 18:09:15 60° ENE 18:09:15 60° ENE 18:13:33 10° N
SAR-Lupe-4 4.3 18:12:53 44° S 18:12:53 44° S 18:15:24 10° SSW
SJ 16-02 3.6 18:08:15 10° SSE 18:08:46 13° SSE 18:08:46 13° SSE
H-2A R/B 2.2 18:07:19 10° S 18:12:16 72° WSW 18:17:23 10° NNW
Cosmos 2263 Rocket 2.4 18:08:16 10° SW 18:13:56 69° NW 18:17:05 27° NNE
Cosmos 1455 3.3 18:11:05 10° N 18:13:18 34° N 18:13:18 34° N
Okean 1-7 Rocket 3.5 18:11:15 10° S 18:15:47 77° E 18:16:14 69° NE
Meteor 1-24 Rocket 4.2 18:13:21 10° SSW 18:18:37 55° WNW 18:23:51 10° N
Ariane Rocket 4.1 18:22:00 29° NNE 18:22:00 29° NNE 18:24:47 10° N
Cosmos 923 Rocket 3.9 18:15:39 10° NNW 18:21:02 79° ENE 18:22:19 53° SE
USA 229 3.9 18:14:10 10° NW 18:21:11 59° NNE 18:23:08 46° E
USA 229 DEB 3.9 18:14:10 10° NW 18:21:11 59° NNE 18:23:09 46° E
MetOp-A 4.3 18:26:35 52° NNE 18:26:35 52° NNE 18:31:04 10° N
NOSS 3-4 (A) 4.1 18:21:08 10° W 18:27:00 47° NNW 18:29:31 32° NNE
NOSS 3-4 (C) 4.1 18:21:14 10° W 18:27:06 48° NNW 18:29:37 33° NNE
Cosmos 1680 Rocket 3.3 18:24:20 10° NNW 18:29:33 73° NE 18:29:33 73° NE
Aureole 3 4.3 18:25:38 10° NNW 18:28:32 40° NNW 18:28:32 40° NNW
USA 267 3.8 18:29:51 37° SE 18:29:51 37° SE 18:35:42 10° SSW
Helios 1A Rocket 4.0 18:28:00 10° S 18:31:59 46° W 18:36:00 10° NNW
Meteor 2-13 Rocket 4.3 18:26:39 10° S 18:32:45 86° ESE 18:38:56 10° NNE
ARGOS 3.4 18:29:40 10° S 18:34:59 66° WSW 18:40:23 10° NNW
NOSS 3-1 (A) 4.0 18:29:37 10° NW 18:36:32 62° NNE 18:38:03 53° ENE
Lacrosse 5 2.1 18:32:11 10° WNW 18:37:10 59° SW 18:37:41 56° S
Meteor 1-21 Rocket 4.2 18:33:29 10° S 18:38:13 63° SSE 18:38:13 63° SSE
Cosmos 2082 Rocket 3.5 18:34:06 10° NNW 18:37:45 27° NNE 18:37:45 27° NNE
CZ-2C R/B 3.9 18:43:09 29° S 18:43:09 29° S 18:45:48 10° S
Okean-O 4.3 18:37:21 10° SSW 18:41:22 33° W 18:45:25 10° NNW
USA 281 3.5 18:42:04 47° NE 18:42:04 47° NE 18:47:53 10° NNW
COSMO-SKYMED 1 4.2 18:38:46 13° N 18:42:04 32° WNW 18:45:56 10° SW
Cosmos 1833 Rocket 3.5 18:38:32 10° NNW 18:42:29 37° N 18:42:29 37° N
ATLAS 2AS CENTAUR R/B 3.5 18:37:07 10° WSW 18:44:53 54° NNW 18:48:02 35° NNE
ERS-2 3.8 18:46:36 33° W 18:46:36 33° W 18:49:31 10° SW
CZ-4B R/B 4.1 18:45:36 16° NW 18:46:45 18° WNW 18:49:09 10° WSW
Cosmos 158 Rocket 4.4 18:44:57 10° NNW 18:50:10 62° WSW 18:51:25 48° SSW
RESURS DK-1 4.1 18:48:24 10° W 18:52:00 28° NW 18:52:07 28° NW
Cosmos 2227 Rocket 4.3 18:53:17 10° WNW 18:57:05 18° NNW 18:59:10 15° N
USA 234 3.4 19:06:27 60° S 19:07:18 65° SSW 19:13:50 10° WNW
Cosmos 1844 Rocket 3.7 19:03:54 10° SSW 19:07:13 37° SSW 19:07:13 37° SSW
CZ-4C R/B 3.3 19:07:57 10° W 19:13:17 40° NNW 19:13:43 40° N
Iridium 4 Rocket 4.2 19:08:42 10° N 19:14:27 59° W 19:15:36 49° SW
Cosmos 1092 Rocket 4.1 19:11:23 10° SSW 19:24:33 - N 19:17:18 70° W
Cosmos 2297 Rocket 4.4 19:19:32 10° NW 19:22:42 15° NNW 19:23:29 15° N
Cosmos 2344 4.2 19:14:39 10° NW 19:23:33 83° SW 19:26:40 54° SE
COSMOS 2455 3.3 19:18:46 10° SW 19:23:37 56° WSW 19:23:37 56° WSW
ATLAS 5 CENTAUR R/B 4.1 19:41:17 10° W 19:42:38 19° WNW 19:42:38 19° WNW
NOSS 3-1 (C) 4.4 19:49:46 10° NW 19:56:35 56° WSW 19:56:35 56° WSW
Cosmos 2263 Rocket 4.2 19:54:27 10° W 19:58:48 23° NNW 19:58:48 23° NNW
Cosmos 2082 Rocket 4.5 20:18:06 10° NW 20:19:37 19° NW 20:19:37 19° NW
ATLAS 2AS CENTAUR R/B 4.2 20:30:05 10° WNW 20:35:28 35° NNW 20:35:28 35° NNW
